sat.trackr.live / text

‹ back to catalog

STARLINK-35224

NORAD 65811 · 2025-218W

PAYLOAD ACTIVE UNKNOWN

§ Identity

Operator
Country
US
Launch date
2025-09-26
Launch site
AFWTR
Launch vehicle
Mass (kg)
RCS (m²)

Purposes: comms

External: N2YO · Heavens-Above · Gunter

§ Orbital elements

Epoch: 2026-05-25T03:03:14.405184Z

Period
95.64 min
Inclination
97.4497°
Eccentricity
0.0002768
Mean motion
15.05654863 rev/d
Perigee alt
547.6 km
Apogee alt
551.4 km
Semi-major
6,927.6 km
B*
1.2065e-4
RAAN
7.9528°
Arg perigee
88.3575°
Mean anomaly
271.7969°
Rev number
3,647

§ Raw data

STARLINK-352241 65811U 25218W   26145.12725006  .00001683  00000+0  12065-3 0  99942 65811  97.4497   7.9528 0002768  88.3575 271.7969 15.05654863 36477

JSON: /api/v1/satellites/65811 · /tle

For live sub-satellite position, see the globe view (requires WebGL).

§ Visibility from observer

Set your observer location to see the next 7 days of passes ≥ 10°. The values pass through the URL so the page stays shareable.

No JS? Fill the form by hand. The geolocation button needs JavaScript.